Lihue, HI

11:49 AM HST on February 25, 2017 (GMT -1000)
Lihue

Weather History for PHLI - August, 2013

Change the Weather History Date:

Monday, August 12, 2013

  Actual Average Record
Temperature  
Mean Temperature 80 °F 80 °F  
Max Temperature 84 °F 85 °F 88 °F (1981)
Min Temperature 75 °F 75 °F 68 °F (1952)
Degree Days  
Heating Degree Days 0 0  
Month to date heating degree days 0 0  
Since 1 June heating degree days 0 0  
Since 1 July heating degree days 0 0  
Cooling Degree Days 15 15  
Month to date cooling degree days 163 179  
Year to date cooling degree days 2008 2251  
Since 1 June cooling degree days 926 1012  
Growing Degree Days 29 (Base 50)    
Moisture  
Dew Point 70 °F    
Average Humidity 75    
Maximum Humidity 87    
Minimum Humidity 63    
Precipitation  
Precipitation T in 0.07 in 1.49 in (2002)
Month to date precipitation 0.48 0.89  
Year to date precipitation 16.94 20.21  
Snow  
Snow 0.00 in - - ()
Month to date snowfall 0.0  
Since 1 June snowfall 0.0  
Since 1 July snowfall 0.0  
Snow Depth 0.00 in    
Sea Level Pressure  
Sea Level Pressure 30.08 in    
Wind  
Wind Speed 15 mph (NE)    
Max Wind Speed 18 mph    
Max Gust Speed 23 mph    
Visibility 10 miles    
Events Rain    
T = Trace of Precipitation, MM = Missing Value Source: NWS Daily Summary

Daily Weather History Graph

Daily Weather History Graph

Search for Another Location

Airport or City:

Trip Planner

Search our weather history database for the weather conditions in past years. The results will help you decide how hot, cold, wet, or windy it might be!

Date:

Astronomy

Aug. 12, 2013 Rise Set
Actual Time 6:14 AM HST 7:10 PM HST
Civil Twilight 5:50 AM HST 7:33 PM HST
Nautical Twilight 5:23 AM HST 8:00 PM HST
Astronomical Twilight 4:55 AM HST 8:29 PM HST
Moon 11:25 AM HST (8/12) 11:04 PM HST (8/12)
Length of Visible Light 13h 42m
Length of Day
12h 56m
Waxing Crescent, 33% of the Moon is Illuminated
Aug 12
Waxing Crescent
Aug 14
First Quarter
Aug 20
Full
Aug 27
Last Quarter
Sep 5
New

Hourly Weather History & Observations

Time (HST) Temp. Heat Index Dew Point Humidity Pressure Visibility Wind Dir Wind Speed Gust Speed Precip Events Conditions
12:53 AM 75.9 °F - 71.1 °F 85% 30.07 in 10.0 mi NE 12.7 mph 20.7 mph 0.00 in Rain Light Rain
1:53 AM 75.0 °F - 71.1 °F 87% 30.06 in 8.0 mi ENE 13.8 mph - 0.00 in Rain Light Rain
2:13 AM 75.2 °F - 71.6 °F 89% 30.07 in 10.0 mi NE 16.1 mph - 0.00 in   Mostly Cloudy
2:27 AM 75.2 °F - 71.6 °F 89% 30.06 in 10.0 mi ENE 16.1 mph - 0.00 in   Mostly Cloudy
2:36 AM 75.2 °F - 71.6 °F 89% 30.07 in 10.0 mi NE 17.3 mph - 0.00 in   Scattered Clouds
2:53 AM 75.0 °F - 70.0 °F 84% 30.06 in 10.0 mi NE 17.3 mph - 0.00 in   Scattered Clouds
3:53 AM 75.0 °F - 71.1 °F 87% 30.05 in 10.0 mi NE 17.3 mph - N/A   Mostly Cloudy
4:53 AM 75.0 °F - 70.0 °F 84% 30.06 in 10.0 mi NE 16.1 mph - N/A   Partly Cloudy
5:53 AM 75.0 °F - 70.0 °F 84% 30.07 in 10.0 mi ENE 13.8 mph - N/A   Partly Cloudy
6:53 AM 75.9 °F - 68.0 °F 76% 30.08 in 10.0 mi NE 16.1 mph - N/A   Clear
7:53 AM 78.1 °F - 70.0 °F 76% 30.10 in 10.0 mi NE 13.8 mph - N/A   Partly Cloudy
8:53 AM 80.1 °F 83.2 °F 70.0 °F 71% 30.10 in 10.0 mi NE 15.0 mph - N/A   Scattered Clouds
9:10 AM 78.8 °F - 69.8 °F 74% 30.11 in 10.0 mi NE 12.7 mph - N/A   Mostly Cloudy
9:30 AM 80.6 °F 83.9 °F 69.8 °F 70% 30.12 in 10.0 mi NE 13.8 mph - N/A   Scattered Clouds
9:53 AM 81.0 °F 84.4 °F 70.0 °F 69% 30.12 in 10.0 mi NE 15.0 mph - N/A   Scattered Clouds
10:53 AM 82.9 °F 85.8 °F 68.0 °F 60% 30.11 in 10.0 mi NE 13.8 mph - N/A   Clear
11:53 AM 82.9 °F 86.5 °F 69.1 °F 63% 30.10 in 10.0 mi ENE 15.0 mph - N/A   Partly Cloudy
12:53 PM 82.9 °F 86.5 °F 69.1 °F 63% 30.09 in 10.0 mi NE 12.7 mph - N/A   Scattered Clouds
1:53 PM 82.9 °F 86.5 °F 69.1 °F 63% 30.07 in 10.0 mi NE 15.0 mph - N/A   Partly Cloudy
2:53 PM 82.0 °F 84.9 °F 68.0 °F 62% 30.06 in 10.0 mi NE 16.1 mph - N/A   Clear
3:53 PM 81.0 °F 83.8 °F 68.0 °F 65% 30.05 in 10.0 mi NNE 18.4 mph - N/A   Clear
4:53 PM 81.0 °F 84.1 °F 69.1 °F 67% 30.05 in 10.0 mi NE 16.1 mph - N/A   Partly Cloudy
5:53 PM 79.0 °F - 68.0 °F 69% 30.05 in 10.0 mi NE 16.1 mph - N/A   Scattered Clouds
6:53 PM 77.0 °F - 69.1 °F 76% 30.07 in 10.0 mi NE 16.1 mph - N/A   Scattered Clouds
7:53 PM 75.9 °F - 68.0 °F 76% 30.07 in 10.0 mi NE 16.1 mph - N/A   Partly Cloudy
8:53 PM 75.9 °F - 69.1 °F 79% 30.09 in 10.0 mi NE 17.3 mph - N/A   Clear
9:53 PM 75.9 °F - 70.0 °F 82% 30.10 in 10.0 mi NE 18.4 mph - N/A   Partly Cloudy
10:53 PM 75.9 °F - 66.9 °F 74% 30.12 in 10.0 mi ENE 18.4 mph - N/A   Clear
11:53 PM 75.9 °F - 69.1 °F 79% 30.10 in 10.0 mi NE 19.6 mph - N/A   Mostly Cloudy